When you browse on this site, cookies collect data to enhance your experience and personalize the content and advertising you see.
Visit our Privacy Policy to learn more. By continuing to use the site, you agree to this use of cookies and data.
  • In Hungary
  • List of Countries
  • For 7 days
  • Water Temperature
  • Satellite Maps
  • Weather Map
  • News
  • Weather Widgets
  • user-avatar
    Login

    Hourly Weather Centennial

    Today, 22 March, Friday

    Time Temperature Precipitation Wind Pressure Humidity
    00:00 +3°C° 0 mm 3 mps 611 mmHg 51%
    01:00 +3°C° 0 mm 3 mps 611 mmHg 51%
    02:00 +3°C° 0 mm 3 mps 611 mmHg 51%
    03:00 +4°C° 0 mm 2 mps 610 mmHg 53%
    04:00 +3°C° 0 mm 2 mps 610 mmHg 54%
    05:00 +3°C° 0 mm 2 mps 610 mmHg 56%
    06:00 +5°C° 0 mm 1 mps 610 mmHg 55%
    07:00 +6°C° 0 mm 1 mps 610 mmHg 53%
    08:00 +7°C° 0 mm 1 mps 610 mmHg 51%
    09:00 +8°C° 0 mm 1 mps 611 mmHg 48%
    10:00 +9°C° 0 mm 2 mps 611 mmHg 44%
    11:00 +12°C° 0 mm 2 mps 611 mmHg 40%
    12:00 +12°C° 0 mm 2 mps 611 mmHg 37%
    13:00 +13°C° 0 mm 2 mps 611 mmHg 35%
    14:00 +13°C° 0 mm 2 mps 611 mmHg 32%
    15:00 +12°C° 0 mm 2 mps 610 mmHg 39%
    16:00 +10°C° 0 mm 2 mps 610 mmHg 45%
    17:00 +9°C° 0 mm 2 mps 609 mmHg 52%
    18:00 +8°C° 0.6 mm 3 mps 609 mmHg 55%
    19:00 +6°C° 0.6 mm 4 mps 609 mmHg 58%
    20:00 +5°C° 0.6 mm 4 mps 609 mmHg 61%
    21:00 +4°C° 0.1 mm 3 mps 609 mmHg 62%
    22:00 +5°C° 0.1 mm 2 mps 610 mmHg 63%
    23:00 +6°C° 0.1 mm 1 mps 610 mmHg 64%

    Tomorrow, 23 March, Saturday

    Time Temperature Precipitation Wind Pressure Humidity
    00:00 +5°C° 0.1 mm 1 mps 610 mmHg 64%
    01:00 +5°C° 0.1 mm 1 mps 610 mmHg 63%
    02:00 +5°C° 0.1 mm 1 mps 610 mmHg 63%
    03:00 +5°C° 0 mm 1 mps 610 mmHg 62%
    04:00 +4°C° 0 mm 1 mps 610 mmHg 61%
    05:00 +4°C° 0 mm 1 mps 609 mmHg 60%
    06:00 +5°C° 0 mm 1 mps 610 mmHg 56%
    07:00 +6°C° 0 mm 1 mps 610 mmHg 53%
    08:00 +7°C° 0 mm 1 mps 611 mmHg 50%
    09:00 +7°C° 0 mm 2 mps 611 mmHg 47%
    10:00 +8°C° 0 mm 2 mps 611 mmHg 43%
    11:00 +9°C° 0 mm 3 mps 612 mmHg 40%
    12:00 +10°C° 0 mm 3 mps 611 mmHg 39%
    13:00 +10°C° 0 mm 3 mps 611 mmHg 38%
    14:00 +11°C° 0 mm 3 mps 611 mmHg 37%
    15:00 +11°C° 0 mm 3 mps 611 mmHg 38%
    16:00 +11°C° 0 mm 3 mps 611 mmHg 40%
    17:00 +10°C° 0 mm 3 mps 611 mmHg 42%
    18:00 +8°C° 0 mm 3 mps 611 mmHg 51%
    19:00 +7°C° 0 mm 3 mps 611 mmHg 60%
    20:00 +5°C° 0 mm 2 mps 611 mmHg 69%
    21:00 +5°C° 0 mm 2 mps 612 mmHg 68%
    22:00 +4°C° 0 mm 2 mps 612 mmHg 66%
    23:00 +4°C° 0 mm 2 mps 612 mmHg 65%

    Day after tomorrow, 24 March, Sunday

    Time Temperature Precipitation Wind Pressure Humidity
    00:00 +4°C° 0 mm 2 mps 612 mmHg 64%
    01:00 +3°C° 0 mm 2 mps 612 mmHg 62%
    02:00 +3°C° 0 mm 2 mps 612 mmHg 61%
    03:00 +4°C° 0 mm 1 mps 612 mmHg 61%
    04:00 +3°C° 0 mm 1 mps 612 mmHg 61%
    05:00 +3°C° 0 mm 1 mps 612 mmHg 62%
    06:00 +4°C° 0 mm 1 mps 612 mmHg 56%
    07:00 +6°C° 0 mm 1 mps 613 mmHg 50%
    08:00 +6°C° 0 mm 0 mps 614 mmHg 45%
    09:00 +9°C° 0 mm 1 mps 614 mmHg 41%
    10:00 +10°C° 0 mm 1 mps 615 mmHg 37%
    11:00 +12°C° 0 mm 2 mps 615 mmHg 33%
    12:00 +12°C° 0 mm 2 mps 615 mmHg 33%
    13:00 +13°C° 0 mm 2 mps 615 mmHg 32%
    14:00 +13°C° 0 mm 1 mps 615 mmHg 32%
    15:00 +13°C° 0.1 mm 1 mps 615 mmHg 35%
    16:00 +13°C° 0.1 mm 1 mps 615 mmHg 37%
    17:00 +12°C° 0.1 mm 1 mps 615 mmHg 39%
    18:00 +10°C° 0.2 mm 1 mps 615 mmHg 48%
    19:00 +9°C° 0.2 mm 1 mps 615 mmHg 57%
    20:00 +7°C° 0.2 mm 1 mps 616 mmHg 65%
    21:00 +6°C° 0 mm 1 mps 616 mmHg 68%
    22:00 +6°C° 0 mm 1 mps 616 mmHg 71%
    23:00 +5°C° 0 mm 1 mps 616 mmHg 74%

    25 March, Monday

    Time Temperature Precipitation Wind Pressure Humidity
    00:00 +5°C° 0 mm 1 mps 616 mmHg 72%
    01:00 +4°C° 0 mm 2 mps 616 mmHg 69%
    02:00 +3°C° 0 mm 2 mps 616 mmHg 67%
    03:00 +3°C° 0 mm 2 mps 616 mmHg 64%
    04:00 +3°C° 0 mm 2 mps 616 mmHg 62%
    05:00 +2°C° 0 mm 2 mps 616 mmHg 59%
    06:00 +4°C° 0 mm 2 mps 616 mmHg 53%
    07:00 +5°C° 0 mm 2 mps 617 mmHg 47%
    08:00 +7°C° 0 mm 2 mps 618 mmHg 41%
    09:00 +10°C° 0 mm 1 mps 618 mmHg 35%
    10:00 +12°C° 0 mm 1 mps 619 mmHg 28%
    11:00 +13°C° 0 mm 1 mps 619 mmHg 22%
    12:00 +14°C° 0 mm 1 mps 619 mmHg 21%
    13:00 +15°C° 0 mm 1 mps 619 mmHg 19%
    14:00 +16°C° 0 mm 1 mps 619 mmHg 18%
    15:00 +16°C° 0 mm 1 mps 618 mmHg 19%
    16:00 +16°C° 0 mm 1 mps 618 mmHg 20%
    17:00 +16°C° 0 mm 2 mps 618 mmHg 22%
    18:00 +14°C° 0 mm 2 mps 617 mmHg 27%
    19:00 +12°C° 0 mm 2 mps 617 mmHg 33%
    20:00 +9°C° 0 mm 2 mps 617 mmHg 38%
    21:00 +8°C° 0 mm 2 mps 617 mmHg 40%
    22:00 +7°C° 0 mm 2 mps 616 mmHg 42%
    23:00 +7°C° 0 mm 2 mps 616 mmHg 44%

    26 March, Tuesday

    Time Temperature Precipitation Wind Pressure Humidity
    00:00 +6°C° 0 mm 2 mps 616 mmHg 44%
    01:00 +5°C° 0 mm 3 mps 615 mmHg 44%
    02:00 +4°C° 0 mm 3 mps 615 mmHg 44%
    03:00 +4°C° 0 mm 3 mps 615 mmHg 44%
    04:00 +4°C° 0 mm 3 mps 614 mmHg 45%
    05:00 +4°C° 0 mm 2 mps 614 mmHg 46%
    06:00 +6°C° 0 mm 2 mps 614 mmHg 42%
    07:00 +8°C° 0 mm 2 mps 615 mmHg 39%
    08:00 +9°C° 0 mm 2 mps 616 mmHg 36%
    09:00 +13°C° 0 mm 2 mps 616 mmHg 30%
    10:00 +15°C° 0 mm 2 mps 616 mmHg 24%
    11:00 +17°C° 0 mm 2 mps 617 mmHg 18%
    12:00 +18°C° 0 mm 3 mps 616 mmHg 17%
    13:00 +19°C° 0 mm 3 mps 616 mmHg 16%
    14:00 +20°C° 0 mm 4 mps 616 mmHg 15%
    15:00 +20°C° 0 mm 4 mps 615 mmHg 17%
    16:00 +20°C° 0 mm 4 mps 615 mmHg 20%
    17:00 +19°C° 0 mm 4 mps 615 mmHg 22%
    18:00 +17°C° 0 mm 4 mps 614 mmHg 26%
    19:00 +14°C° 0 mm 3 mps 614 mmHg 30%
    20:00 +12°C° 0 mm 3 mps 613 mmHg 34%
    21:00 +11°C° 0 mm 3 mps 613 mmHg 35%
    22:00 +11°C° 0 mm 3 mps 612 mmHg 37%
    23:00 +10°C° 0 mm 3 mps 612 mmHg 39%

    27 March, Wednesday

    Time Temperature Precipitation Wind Pressure Humidity
    00:00 +9°C° 0 mm 3 mps 611 mmHg 39%
    01:00 +9°C° 0 mm 3 mps 611 mmHg 39%
    02:00 +9°C° 0 mm 3 mps 611 mmHg 40%
    03:00 +9°C° 0 mm 3 mps 611 mmHg 40%
    04:00 +8°C° 0 mm 3 mps 611 mmHg 41%
    05:00 +8°C° 0 mm 3 mps 611 mmHg 42%
    06:00 +9°C° 0 mm 3 mps 611 mmHg 40%
    07:00 +10°C° 0 mm 3 mps 612 mmHg 39%
    08:00 +12°C° 0 mm 3 mps 612 mmHg 37%
    09:00 +14°C° 0 mm 3 mps 612 mmHg 31%
    10:00 +17°C° 0 mm 2 mps 613 mmHg 25%
    11:00 +19°C° 0 mm 2 mps 613 mmHg 19%
    12:00 +20°C° 0 mm 2 mps 613 mmHg 17%
    13:00 +21°C° 0 mm 2 mps 613 mmHg 15%
    14:00 +23°C° 0 mm 2 mps 613 mmHg 13%
    15:00 +21°C° 0 mm 3 mps 613 mmHg 14%
    16:00 +21°C° 0 mm 3 mps 613 mmHg 16%
    17:00 +20°C° 0 mm 3 mps 613 mmHg 17%
    18:00 +18°C° 0 mm 3 mps 612 mmHg 21%
    19:00 +16°C° 0 mm 3 mps 612 mmHg 25%
    20:00 +13°C° 0 mm 3 mps 612 mmHg 28%
    21:00 +12°C° 0 mm 3 mps 611 mmHg 29%
    22:00 +11°C° 0 mm 3 mps 611 mmHg 30%
    23:00 +11°C° 0 mm 3 mps 611 mmHg 31%
    Show more